Weather History for PAMR - January, 2014

Change the Weather History Date:

Thursday, January 23, 2014

  Actual Average (WUND) Record (WUND)
Temperature  
Mean Temperature 38 °F -  
Max Temperature 41 °F - - (-1)
Min Temperature 35 °F - - (-1)
Degree Days  
Heating Degree Days 27    
Moisture  
Dew Point 35 °F    
Average Humidity 92    
Maximum Humidity 100    
Minimum Humidity 79    
Precipitation  
Precipitation 0.40 in - - ()
Sea Level Pressure  
Sea Level Pressure 29.65 in    
Wind  
Wind Speed 2 mph (West)    
Max Wind Speed 6 mph    
Max Gust Speed -    
Visibility 7 miles    
Events Rain    
Averages and records for this station are not official NWS values.
T = Trace of Precipitation, MM = Missing Value Source: NWS Daily Summary

Daily Weather History Graph

Daily Weather History Graph

Search for Another Location

Airport or City:

Trip Planner

Search our weather history database for the weather conditions in past years. The results will help you decide how hot, cold, wet, or windy it might be!

Date:

Astronomy

Jan. 23, 2014 Rise Set
Actual Time 9:40 AM AKST 4:42 PM AKST
Civil Twilight 8:47 AM AKST 5:35 PM AKST
Nautical Twilight 7:53 AM AKST 6:30 PM AKST
Astronomical Twilight 7:01 AM AKST 7:21 PM AKST
Moon 1:32 AM AKST (1/23) 11:07 AM AKST (1/23)
Length of Visible Light 8h 47m
Length of Day
7h 02m
Waning Gibbous, 54% of the Moon is Illuminated
Jan 23
Waning Gibbous
Jan 23
Last Quarter
Jan 30
New
Feb 6
First Quarter
Feb 14
Full

Hourly Weather History & Observations

Time (AKST) Temp. Windchill Dew Point Humidity Pressure Visibility Wind Dir Wind Speed Gust Speed Precip Events Conditions
12:53 AM 36.0 °F - 34.0 °F 93% 29.55 in 3.0 mi Calm Calm - 0.08 in Rain Light Rain
1:53 AM 37.0 °F 34.5 °F 35.1 °F 93% 29.55 in 4.0 mi WNW 3.5 mph - 0.10 in Rain Light Rain
2:43 AM 35.6 °F - 35.6 °F 100% 29.52 in 2.5 mi Calm Calm - 0.04 in Rain Light Rain
3:48 AM 35.6 °F 32.8 °F 35.6 °F 100% 29.49 in 2.0 mi South 3.5 mph - 0.09 in Rain Light Rain
3:53 AM 36.0 °F - 35.1 °F 97% 29.49 in 2.0 mi Calm Calm - 0.09 in Rain Light Rain
4:53 AM 37.0 °F 33.3 °F 35.1 °F 93% 29.50 in 2.0 mi WSW 4.6 mph - 0.05 in Rain Light Rain
5:53 AM 37.0 °F 33.3 °F 36.0 °F 96% 29.53 in 3.0 mi NW 4.6 mph - 0.05 in Rain Light Rain
6:09 AM 37.4 °F 34.9 °F 35.6 °F 93% 29.53 in 2.0 mi NW 3.5 mph - 0.00 in Rain Light Rain
6:53 AM 36.0 °F 33.3 °F 35.1 °F 97% 29.56 in 2.0 mi East 3.5 mph - 0.00 in Rain Light Rain
6:58 AM 35.6 °F - 33.8 °F 93% 29.56 in 4.0 mi Calm Calm - 0.00 in Rain Light Rain
7:53 AM 37.0 °F - 35.1 °F 93% 29.60 in 4.0 mi Calm Calm - 0.00 in Rain Light Rain
8:53 AM 37.0 °F - 35.1 °F 93% 29.65 in 9.0 mi Calm Calm - 0.00 in Rain Light Rain
9:19 AM 37.4 °F - 35.6 °F 93% 29.67 in 5.0 mi Calm Calm - 0.00 in Rain Light Rain
9:53 AM 36.0 °F - 34.0 °F 93% 29.70 in 10.0 mi Calm Calm - 0.00 in   Overcast
10:53 AM 37.0 °F - 35.1 °F 93% 29.70 in 10.0 mi Calm Calm - N/A   Overcast
11:53 AM 37.0 °F 33.3 °F 35.1 °F 93% 29.74 in 10.0 mi WNW 4.6 mph - N/A   Mostly Cloudy
12:53 PM 37.0 °F - 34.0 °F 89% 29.76 in 10.0 mi Calm Calm - N/A   Mostly Cloudy
1:53 PM 37.9 °F 35.5 °F 35.1 °F 89% 29.77 in 10.0 mi West 3.5 mph - N/A   Overcast
2:53 PM 41.0 °F 37.1 °F 35.1 °F 79% 29.77 in 10.0 mi North 5.8 mph - N/A   Overcast
3:53 PM 41.0 °F 39.0 °F 35.1 °F 79% 29.78 in 10.0 mi Variable 3.5 mph - N/A   Overcast
4:53 PM 41.0 °F 38.0 °F 35.1 °F 79% 29.78 in 10.0 mi WNW 4.6 mph - N/A   Mostly Cloudy
5:53 PM 39.0 °F 36.8 °F 36.0 °F 89% 29.78 in 10.0 mi SSE 3.5 mph - 0.00 in Rain Light Rain
6:53 PM 37.9 °F 34.4 °F 35.1 °F 89% 29.77 in 8.0 mi WNW 4.6 mph - 0.02 in Rain Light Rain
7:53 PM 37.9 °F 33.5 °F 35.1 °F 89% 29.75 in 10.0 mi WNW 5.8 mph - 0.01 in Rain Light Rain
8:53 PM 37.9 °F 35.5 °F 36.0 °F 93% 29.70 in 10.0 mi West 3.5 mph - 0.00 in Rain Light Rain
9:47 PM 37.4 °F 34.9 °F 35.6 °F 93% 29.67 in 10.0 mi South 3.5 mph - 0.00 in Rain Light Rain
9:53 PM 37.0 °F - 35.1 °F 93% 29.68 in 10.0 mi Calm Calm - 0.00 in Rain Light Rain
10:53 PM 37.0 °F 33.3 °F 35.1 °F 93% 29.66 in 10.0 mi WNW 4.6 mph - 0.00 in   Overcast
11:53 PM 37.0 °F 32.4 °F 35.1 °F 93% 29.61 in 10.0 mi WSW 5.8 mph - N/A   Overcast